Track IRIDIUM 125 now! 10-day predictions IRIDIUM 125 is classified as:
1 42964U 17061K 26013.22155849 .00000109 00000-0 31775-4 0 9995 2 42964 86.3960 90.1819 0002584 104.9418 255.2064 14.34217004432642